Weerstation Grootegast  Weerstation Grootegast


15 daagse weersverwachting Luzern (CH)

  • Overzicht
  • Per uur
  • 15 dagen
  • Extra
  • Vergelijk
  • Kaarten
  • Dagkaart
  • Meer »
  • Info
  • Statistieken
  • Directe link
    Temp 6h Neerslag Wind  
 07:14     19:25    Daglengte: 12:11 Vandaag
02:00
17°
 
1
warningclass
08:00
16°
0.5 mm
1
14:00
21°
1.1 mm
1
20:00
19°
1.6 mm
1
 07:16     19:23    Daglengte: 12:07 Morgen
02:00
16°
 
1
08:00
15°
0.9 mm
1
14:00
21°
 
1
20:00
18°
1.6 mm
1
 07:17     19:21    Daglengte: 12:04 Woensdag 23 Sep
02:00
16°
3.8 mm
1
08:00
15°
21.2 mm
1
14:00
19°
30.1 mm
1
20:00
17°
18.5 mm
1
Locatie info
Region: Luzern-Stadt
Latitude: 47.0495°N
Longitude: 8.3044°E
437 masl
Postcode: 6003
Temp/Neerslag /Baro Onweer/Dauwpunt
    Temp Baro 1h Neerslag Dauwpunt Wind UV Bewolking  
 07:14     19:25    Daglengte: 12:11 Vandaag
01:00
17°
1015.5 hPa
48%
14.4°
1
Windvlaag: 1.2 m/s
42%
02:00
17°
1015.8 hPa
60%
14.5°
1
Windvlaag: 1.3 m/s
46% warningclass
03:00
17°
1015.7 hPa 0.5 mm
67%
14.7°
0
Windvlaag: 0.8 m/s
55% warningclass
04:00
16°
1015.8 hPa
62%
14.9°
0
Windvlaag: 0.7 m/s
42%
05:00
16°
1015.7 hPa
18%
14.7°
1
Windvlaag: 0.5 m/s
51%
06:00
16°
1015.7 hPa
17%
14.8°
1
Windvlaag: 0.4 m/s
57%
07:00
16°
1015.8 hPa
19%
14.7°
1
Windvlaag: 0.3 m/s
34%
08:00
16°
1016.1 hPa
19%
14.7°
1
Windvlaag: 0.4 m/s
35%
09:00
17°
1016.2 hPa 0.3 mm
15%
15.4°
1
Windvlaag: 0.4 m/s
39%
10:00
18°
1016.3 hPa
16%
15.7°
1
Windvlaag: 0.2 m/s
37%
11:00
19°
1016.3 hPa
17%
16.5°
1
Windvlaag: 0.3 m/s
29%
12:00
20°
1016.2 hPa 0.3 mm
19%
16.5°
1
Windvlaag: -0.1 m/s
25%
13:00
21°
1015.7 hPa 0.3 mm
22%
16.3°
1
Windvlaag: -0.3 m/s
20%
14:00
21°
1015.3 hPa 0.2 mm
66%
16.3°
1
Windvlaag: -0.3 m/s
21%
15:00
21°
1014.9 hPa 0.6 mm
70%
16.6°
1
Windvlaag: -0.4 m/s
32%
16:00
21°
1014.6 hPa 0.4 mm
72%
16.6°
1
Windvlaag: -0.4 m/s
28%
17:00
21°
1014.6 hPa 0.4 mm
36%
16.6°
1
Windvlaag: -0.2 m/s
33%
18:00
21°
1014.6 hPa 0.3 mm
29%
16.6°
1
Windvlaag: 0.5 m/s
48% warningclass
19:00
20°
1014.7 hPa
29%
16.1°
1
Windvlaag: 0.9 m/s
45%
20:00
19°
1015.0 hPa
27%
15.6°
1
Windvlaag: 0.9 m/s
45%
21:00
18°
1015.2 hPa
64%
14.9°
1
Windvlaag: 1 m/s
54%
22:00
18°
1015.1 hPa
17%
14.9°
1
Windvlaag: 0.7 m/s
45%
23:00
17°
1015.0 hPa
17%
14.9°
1
Windvlaag: 0.7 m/s
21%
 07:16     19:23    Daglengte: 12:07 Morgen
00:00
17°
1015.0 hPa
18%
14.9°
1
Windvlaag: 0.8 m/s
26%
01:00
17°
1014.8 hPa
18%
14.9°
1
Windvlaag: 0.9 m/s
9%
02:00
16°
1014.7 hPa
17%
14.9°
1
Windvlaag: 0.9 m/s
12%
03:00
16°
1014.7 hPa
62%
14.7°
1
Windvlaag: 0.8 m/s
29%
04:00
16°
1014.4 hPa
63%
13.7°
2
Windvlaag: 0.8 m/s
23%
05:00
15°
1014.2 hPa 0.4 mm
63%
12.8°
2
Windvlaag: 0.8 m/s
31%
06:00
15°
1014.2 hPa 0.5 mm
65%
12.3°
2
Windvlaag: 1 m/s
39%
07:00
15°
1014.3 hPa
59%
12.4°
1
Windvlaag: 1 m/s
44%
08:00
15°
1014.5 hPa
56%
13.2°
1
Windvlaag: 1 m/s
46%
09:00
17°
1014.5 hPa
19%
13.2°
1
Windvlaag: 0.8 m/s
49%
10:00
18°
1014.4 hPa
19%
14.1°
1
Windvlaag: 0.6 m/s
40%
11:00
19°
1014.1 hPa
16%
14.8°
1
Windvlaag: -0.3 m/s
27%
12:00
20°
1013.5 hPa
19%
15.2°
1
Windvlaag: -0.7 m/s
26%
13:00
20°
1012.9 hPa
25%
15.5°
1
Windvlaag: -1 m/s
41%
14:00
21°
1012.3 hPa
26%
15.6°
1
Windvlaag: -0.9 m/s
44%
15:00
21°
1011.8 hPa 0.9 mm
36%
15.6°
1
Windvlaag: -0.6 m/s
71% warningclass
16:00
21°
1011.3 hPa 0.8 mm
34%
15.5°
1
Windvlaag: -0.4 m/s
66% warningclass
17:00
20°
1011.0 hPa
36%
15.8°
1
Windvlaag: 0.4 m/s
77%
18:00
20°
1010.8 hPa
70%
16.2°
1
Windvlaag: 0.8 m/s
84%
19:00
19°
1010.7 hPa
33%
16.0°
1
Windvlaag: 1.4 m/s
81%
20:00
18°
1010.9 hPa
65%
15.0°
1
Windvlaag: 1.7 m/s
74%
21:00
17°
1011.1 hPa
32%
15.0°
1
Windvlaag: 1.5 m/s
50%
22:00
17°
1011.2 hPa 3.8 mm
29%
14.8°
1
Windvlaag: 1.1 m/s
64%
23:00
17°
1011.1 hPa
80%
14.1°
2
Windvlaag: 1.4 m/s
73%
 07:17     19:21    Daglengte: 12:04 Woensdag 23 Sep
00:00
16°
1010.9 hPa
86%
13.0°
1
Windvlaag: 1.4 m/s
73%
01:00
16°
1010.8 hPa
95%
12.7°
1
Windvlaag: 1.4 m/s
81%
02:00
16°
1010.6 hPa
59%
13.3°
1
Windvlaag: 1.4 m/s
80%
03:00
16°
1010.5 hPa 2.7 mm
100%
13.7°
1
Windvlaag: 1.3 m/s
81%
04:00
16°
1010.4 hPa 2.9 mm
100%
14.2°
1
Windvlaag: 1.3 m/s
91%
05:00
16°
1010.3 hPa 4.2 mm
100%
13.9°
1
Windvlaag: 1.4 m/s
83%
06:00
16°
1010.5 hPa 4.3 mm
100%
14.2°
1
Windvlaag: 1.3 m/s
87%
07:00
15°
1010.5 hPa 4.1 mm
100%
14.0°
1
Windvlaag: 1 m/s
79%
08:00
15°
1010.7 hPa 3.1 mm
100%
14.0°
1
Windvlaag: 1.1 m/s
64%
09:00
17°
1010.4 hPa 3.8 mm
100%
14.7°
1
Windvlaag: 0.9 m/s
61%
10:00
17°
1010.5 hPa 3.6 mm
99%
14.8°
1
Windvlaag: 0.6 m/s
42%
11:00
18°
1010.4 hPa
98%
14.9°
1
Windvlaag: 0.3 m/s
29%
12:00
19°
1010.0 hPa 6.0 mm
100%
14.8°
1
Windvlaag: 0.4 m/s
28%
13:00
20°
1009.4 hPa 4.4 mm
98%
15.2°
2
Windvlaag: 0.4 m/s
63%
14:00
19°
1009.4 hPa 12.2 mm
59%
15.1°
1
Windvlaag: 0.5 m/s
69%
15:00
19°
1009.2 hPa 6.0 mm
100%
15.0°
1
Windvlaag: 3.5 m/s
71%
16:00
19°
1009.0 hPa 6.1 mm
100%
14.8°
1
Windvlaag: 4.3 m/s
57%
17:00
18°
1008.8 hPa 6.4 mm
97%
14.7°
1
Windvlaag: 4.6 m/s
53%
18:00
18°
1008.8 hPa
94%
14.8°
1
Windvlaag: 5.4 m/s
50%
19:00
18°
1008.8 hPa
77%
14.6°
1
Windvlaag: 4.2 m/s
34%
20:00
17°
1008.8 hPa
26%
14.2°
1
Windvlaag: 0.1 m/s
18%
21:00
17°
1008.7 hPa
26%
13.8°
1
Windvlaag: 3.8 m/s
16%
22:00
16°
1008.6 hPa
21%
13.3°
1
Windvlaag: 5.9 m/s
6%
23:00
16°
1008.6 hPa
22%
12.7°
1
Windvlaag: 7.6 m/s
4%
 07:18     19:19    Daglengte: 12:01 Donderdag 24 Sep
00:00
15°
1008.6 hPa
22%
12.2°
2
Windvlaag: 9.3 m/s
3%
Temp/Neerslag /Baro Onweer/Dauwpunt
    Temp Baro Neerslag Dauwpunt Wind Bewolking  
 07:14     19:25    Daglengte: 12:11 Vandaag
02:00
17°
1015.8 hPa   14.5°
1
46% warningclass
05:00
16°
1015.7 hPa 0.5 mm 14.7°
1
51%
08:00
16°
1016.1 hPa   14.7°
1
35%
11:00
19°
1016.3 hPa 0.3 mm 16.5°
1
29%
14:00
21°
1015.3 hPa 0.8 mm 16.3°
1
21%
17:00
21°
1014.6 hPa 1.3 mm 16.6°
1
33%
20:00
19°
1015.0 hPa 0.3 mm 15.6°
1
45%
23:00
17°
1015.0 hPa   14.9°
1
21%
 07:16     19:23    Daglengte: 12:07 Morgen
02:00
16°
1014.7 hPa   14.9°
1
12%
05:00
15°
1014.2 hPa 0.4 mm 12.8°
2
31%
08:00
15°
1014.5 hPa 0.5 mm 13.2°
1
46%
11:00
19°
1014.1 hPa   14.8°
1
27%
14:00
21°
1012.3 hPa   15.6°
1
44%
17:00
20°
1011.0 hPa 1.6 mm 15.8°
1
77%
20:00
18°
1010.9 hPa   15.0°
1
74%
23:00
17°
1011.1 hPa 3.8 mm 14.1°
2
73%
 07:17     19:21    Daglengte: 12:04 Woensdag 23 Sep
02:00
16°
1010.6 hPa   13.3°
1
80%
05:00
16°
1010.3 hPa 9.8 mm 13.9°
1
83%
08:00
15°
1010.7 hPa 11.4 mm 14.0°
1
64%
11:00
18°
1010.4 hPa 7.5 mm 14.9°
1
29%
14:00
19°
1009.4 hPa 22.6 mm 15.1°
1
69%
17:00
18°
1008.8 hPa 18.5 mm 14.7°
1
53%
20:00
17°
1008.8 hPa   14.2°
1
18%
23:00
16°
1008.6 hPa   12.7°
1
4%
 07:18     19:19    Daglengte: 12:01 Donderdag 24 Sep
02:00
14°
1008.4 hPa   11.2°
2
6%
05:00
15°
1009.5 hPa 22.9 mm 11.9°
1
34%
08:00
16°
1010.0 hPa 22.9 mm 12.0°
1
50%
11:00
19°
1009.9 hPa 22.9 mm 13.5°
1
60%
14:00
21°
1009.7 hPa 23.1 mm 14.8°
1
69%
17:00
19°
1009.6 hPa 25.1 mm 15.1°
1
80%
20:00
17°
1009.6 hPa 25.9 mm 14.8°
1
92%
23:00
16°
1008.6 hPa 30.8 mm 14.5°
1
92%
 07:20     19:17    Daglengte: 11:57 Vrijdag 25 Sep
02:00
15°
1007.6 hPa 39.1 mm 14.2°
1
92%
05:00
14°
1006.4 hPa 44.4 mm 13.4°
1
91%
08:00
14°
1005.3 hPa 49.4 mm 12.6°
1
91%
11:00
13°
1006.4 hPa 55.1 mm 11.2°
2
91%
14:00
12°
1007.3 hPa 60.8 mm 9.8°
3
92%
17:00
11°
1007.9 hPa 69.9 mm 8.1°
2
90%
20:00
10°
1008.6 hPa 76.7 mm 6.5°
1
89%
23:00
1009.2 hPa 80.2 mm 6.6°
1
90%
 07:21     19:15    Daglengte: 11:54 Zaterdag 26 Sep
02:00
Voelt als: 7.4°
1009.7 hPa 82.4 mm 6.5°
2
92%
05:00
Voelt als: 6.4°
1010.6 hPa 83.4 mm 6.2°
2
92%
08:00
Voelt als: 5.4°
1011.7 hPa 87.5 mm 5.9°
2
92%
11:00
Voelt als: 6.5°
1012.5 hPa 88.7 mm 6.4°
2
91%
14:00
Voelt als: 7.8°
1013.3 hPa 90.7 mm 7.0°
2
90%
17:00
Voelt als: 6.8°
1013.8 hPa 92.3 mm 6.3°
2
91%
20:00
Voelt als: 5.5°
1014.5 hPa 92.7 mm 5.5°
3
92%
23:00
Voelt als: 5.8°
1013.9 hPa 92.8 mm 5.3°
2
92%
 07:22     19:13    Daglengte: 11:51 Zondag 27 Sep
02:00
Voelt als: 6.1°
1013.1 hPa 92.8 mm 5.0°
2
92%
05:00
Voelt als: 5.7°
1013.9 hPa 92.8 mm 5.0°
2
92%
08:00
Voelt als: 5.5°
1014.8 hPa 92.8 mm 5.0°
2
92%
11:00
Voelt als: 8.3°
1015.6 hPa 92.8 mm 5.7°
2
87%
14:00
10°
1016.5 hPa 92.8 mm 5.9°
1
82%
17:00
10°
1017.6 hPa 93.0 mm 6.1°
1
86%
20:00
1019.0 hPa 93.0 mm 6.1°
1
90%
23:00
10°
1019.9 hPa   6.4°
1
91%
 07:24     19:11    Daglengte: 11:47 Maandag 28 Sep
02:00
10°
1020.7 hPa 186.1 mm 6.8°
1
92%
08:00
10°
1022.4 hPa 186.1 mm 8.1°
1
87%
14:00
15°
1022.5 hPa 189.2 mm 7.8°
1
44%
20:00
13°
1022.8 hPa 190.0 mm 8.4°
1
0%
 07:25     19:09    Daglengte: 11:44 Dinsdag 29 Sep
02:00
10°
Voelt als: 9.5°
1022.6 hPa 211.9 mm 8.6°
1
60%
08:00
10°
Voelt als: 9.9°
1021.1 hPa 226.7 mm 9.4°
1
85%
14:00
18°
1018.8 hPa 227.1 mm 11.0°
1
2%
20:00
16°
1017.5 hPa 227.3 mm 11.5°
1
2%
 07:26     19:07    Daglengte: 11:41 Woensdag 30 Sep
02:00
10°
1016.9 hPa 227.3 mm 6.7°
2
0%
08:00
11°
1015.3 hPa 227.3 mm 7.5°
2
8%
14:00
21°
1013.8 hPa 227.4 mm 10.6°
1
0%
20:00
10°
Voelt als: 9.6°
1018.2 hPa 0.9 mm 8.0°
1
31%
 07:28     19:05    Daglengte: 11:37 Donderdag 01 Okt
02:00
Voelt als: 8.4°
1019.2 hPa 1.3 mm 7.7°
2
34%
08:00
Voelt als: 7.8°
1019.1 hPa 2.1 mm 6.6°
1
39%
14:00
17°
1017.0 hPa 2.1 mm 10.3°
1
35%
20:00
Voelt als: 8.9°
1017.3 hPa 1.1 mm 7.3°
0
38%
 07:29     19:03    Daglengte: 11:34 Vrijdag 02 Okt
02:00
Voelt als: 8.1°
1017.9 hPa 0.8 mm 7.2°
2
35%
08:00
Voelt als: 7.5°
1017.5 hPa 0.9 mm 6.3°
2
31%
14:00
18°
1015.6 hPa 1.8 mm 10.6°
0
33%
20:00
10°
1016.6 hPa 1.9 mm 8.4°
1
37%
 07:30     19:01    Daglengte: 11:31 Zaterdag 03 Okt
02:00
10°
Voelt als: 8.8°
1017.3 hPa 1.1 mm 7.7°
2
35%
08:00
Voelt als: 8.3°
1017.2 hPa 1.5 mm 6.6°
2
31%
14:00
19°
1015.7 hPa 1.3 mm 10.9°
0
37%
20:00
11°
1016.9 hPa 1.2 mm 9.5°
1
42%
 07:32     18:59    Daglengte: 11:27 Zondag 04 Okt
02:00
11°
1018.2 hPa 1.0 mm 8.3°
2
40%
08:00
10°
1018.5 hPa 0.9 mm 7.8°
2
42%
14:00
20°
1017.3 hPa 0.3 mm 12.2°
0
41%
20:00
12°
1018.4 hPa 0.3 mm 10.0°
1
39%
 07:33     18:57    Daglengte: 11:24 Maandag 05 Okt
02:00
11°
1019.4 hPa 0.1 mm 9.0°
2
33%
08:00
11°
1019.4 hPa 0.2 mm 8.4°
2
39%
14:00
20°
1018.0 hPa 0.5 mm 12.7°
0
44%
20:00
13°
1018.7 hPa 0.7 mm 10.6°
1
44%
  CAPE Lifted Index Hail Supercell Tornado SRH 3km CL BTM PRES CL TOP PRES Swiss DWD icon SMHI TS
 07:14     19:25    Daglengte: 12:11 Vandaag
01:00 0 J/kg -0.3 K 0 % 0 % 0 % 0 m²/s² 0 0 1.5 95
02:00 0 J/kg 0.5 K 0 % 0 % 0 % 0 m²/s² 0 0 2.12 95
03:00 0 J/kg 0.6 K 0 % 0 % 0 % 0 m²/s² 0 0 2.1 95
04:00 0 J/kg 0.8 K 0 % 0 % 0 % 0 m²/s² 0 0 2.24 3
05:00 0 J/kg 0.6 K 0 % 0 % 0 % 0 m²/s² 0 0 2.01 3
06:00 0 J/kg 0.1 K 0 % 0 % 0 % 0 m²/s² 0 0 1.51 3
07:00 0 J/kg 0.3 K 0 % 0 % 0 % 0 m²/s² 0 0 1.89 3
08:00 0 J/kg 0.3 K 0 % 0 % 0 % 0 m²/s² 0 0 1.89 45
09:00 0 J/kg 0.4 K 0 % 0 % 0 % 0 m²/s² 0 0 2.11 45
10:00 1 J/kg 0.4 K 0 % 0 % 0 % 0 m²/s² 0 0 1.87 2
11:00 30 J/kg -0.6 K 0 % 0 % 0 % 0 m²/s² 0 0 0.6 2
12:00 206 J/kg -1.6 K 0 % 0 % 0 % 0 m²/s² 0 0 -0.94 2
13:00 354 J/kg -2.0 K 0 % 0 % 0 % 0 m²/s² 0 0 -1.37 1
14:00 456 J/kg -2.3 K 0 % 0 % 0 % 0 m²/s² 0 0 -1.34 1
15:00 552 J/kg -2.6 K 0 % 0 % 0 % 0 m²/s² 0 0 -1.64 3
16:00 566 J/kg -2.6 K 0 % 0 % 0 % 0 m²/s² 0 0 -1.97 3
17:00 535 J/kg -2.4 K 0 % 0 % 0 % 0 m²/s² 0 0 -1.44 3
18:00 461 J/kg -2.4 K 0 % 0 % 0 % 0 m²/s² 0 0 -2.37 3
19:00 369 J/kg -2.2 K 0 % 0 % 0 % 0 m²/s² 0 0 -1.15 3
20:00 170 J/kg -1.7 K 0 % 0 % 0 % 0 m²/s² 0 0 -0.95 2
21:00 0 J/kg -0.3 K 0 % 0 % 0 % 0 m²/s² 0 0 0.66 2
22:00 0 J/kg 0.1 K 0 % 0 % 0 % 0 m²/s² 0 0 1.09 2
23:00 0 J/kg -0.9 K 0 % 0 % 0 % 0 m²/s² 0 0 1.08 2
 07:16     19:23    Daglengte: 12:07 Morgen
00:00 0 J/kg -0.9 K 0 % 0 % 0 % 0 m²/s² 0 0 1.14 2
01:00 0 J/kg -0.5 K 0 % 0 % 0 % 0 m²/s² 0 0 1.21 2
02:00 0 J/kg 0.4 K 0 % 0 % 0 % 0 m²/s² 0 0 2.23 2
03:00 0 J/kg 0.1 K 0 % 0 % 0 % 0 m²/s² 0 0 1.24 80
04:00 0 J/kg 0.3 K 0 % 0 % 0 % 0 m²/s² 0 0 0.6 2
05:00 0 J/kg 0.4 K 0 % 0 % 0 % 0 m²/s² 0 0 1.12 45
06:00 0 J/kg 0.5 K 0 % 0 % 0 % 0 m²/s² 0 0 0.8 45
07:00 0 J/kg -0.2 K 0 % 0 % 0 % 0 m²/s² 0 0 -0.02 45
08:00 0 J/kg -0.1 K 0 % 0 % 0 % 0 m²/s² 0 0 -0.07 3
09:00 0 J/kg 0.1 K 0 % 0 % 0 % 0 m²/s² 0 0 0.13 3
10:00 1 J/kg 0.1 K 0 % 0 % 0 % 0 m²/s² 0 0 0.4 45
11:00 47 J/kg -0.2 K 0 % 0 % 0 % 0 m²/s² 0 0 0.31 3
12:00 272 J/kg -1.5 K 0 % 0 % 0 % 0 m²/s² 0 0 -0.99 2
13:00 484 J/kg -2.0 K 0 % 0 % 0 % 0 m²/s² 0 0 -1.04 2
14:00 651 J/kg -2.6 K 0 % 0 % 0 % 0 m²/s² 0 0 -1.34 3
15:00 792 J/kg -3.0 K 0 % 0 % 0 % 0 m²/s² 0 0 -2.1 3
16:00 758 J/kg -3.1 K 0 % 0 % 0 % 0 m²/s² 0 0 -2.74 3
17:00 261 J/kg -2.5 K 0 % 0 % 0 % 0 m²/s² 0 0 -2.47 3
18:00 94 J/kg -0.8 K 0 % 0 % 0 % 0 m²/s² 0 0 -0.35 3
19:00 3 J/kg 1.0 K 0 % 0 % 0 % 0 m²/s² 0 0 1.45 2
20:00 0 J/kg 0.5 K 0 % 0 % 0 % 0 m²/s² 0 0 0.92 3
21:00 0 J/kg 1.5 K 0 % 0 % 0 % 0 m²/s² 0 0 2.34 2
22:00 0 J/kg 0.8 K 0 % 0 % 0 % 0 m²/s² 0 0 1.55 3
23:00 0 J/kg 1.1 K 0 % 0 % 0 % 0 m²/s² 0 0 1.58 3
 07:17     19:21    Daglengte: 12:04 Woensdag 23 Sep
00:00 0 J/kg 0.5 K 0 % 0 % 0 % 0 m²/s² 0 0 1.31 3
01:00 0 J/kg 0.2 K 0 % 0 % 0 % 0 m²/s² 0 0 0.71 3
02:00 0 J/kg 0.6 K 0 % 0 % 0 % 0 m²/s² 0 0 1.08 3
03:00 0 J/kg 0.1 K 0 % 0 % 0 % 0 m²/s² 0 0 0.85 3
04:00 0 J/kg -0.6 K 0 % 0 % 0 % 0 m²/s² 0 0 0.06 3
05:00 0 J/kg 0.2 K 0 % 0 % 0 % 0 m²/s² 0 0 1.01 3
06:00 0 J/kg 0.3 K 0 % 0 % 0 % 0 m²/s² 0 0 0.69 3
07:00 0 J/kg 0.1 K 0 % 0 % 0 % 0 m²/s² 0 0 0.76 3
08:00 0 J/kg 0.9 K 0 % 0 % 0 % 0 m²/s² 0 0 1.83 61
09:00 0 J/kg 0.8 K 0 % 0 % 0 % 0 m²/s² 0 0 1.73 61
10:00 81 J/kg 0.0 K 0 % 0 % 0 % 0 m²/s² 0 0 0.75 61
11:00 79 J/kg -0.3 K 0 % 0 % 0 % 0 m²/s² 0 0 0.45 3
12:00 103 J/kg -0.3 K 0 % 0 % 0 % 0 m²/s² 0 0 0.36 61
13:00 88 J/kg -0.3 K 0 % 0 % 0 % 0 m²/s² 0 0 0.51 61
14:00 50 J/kg -0.3 K 0 % 0 % 0 % 0 m²/s² 0 0 0.6 3
15:00 17 J/kg 0.3 K 0 % 0 % 0 % 0 m²/s² 0 0 0.99 3
16:00 51 J/kg 0.0 K 0 % 0 % 0 % 0 m²/s² 0 0 0.48 80
17:00 136 J/kg -0.4 K 0 % 0 % 0 % 0 m²/s² 0 0 0.5 80
18:00 145 J/kg -0.4 K 0 % 0 % 0 % 0 m²/s² 0 0 0.26 3
19:00 146 J/kg -0.5 K 0 % 0 % 0 % 0 m²/s² 0 0 -0.17 3
20:00 86 J/kg -0.8 K 0 % 0 % 0 % 0 m²/s² 0 0 0.1 3
21:00 5 J/kg -0.6 K 0 % 0 % 0 % 0 m²/s² 0 0 0.54 3
22:00 5 J/kg -0.6 K 0 % 0 % 0 % 0 m²/s² 0 0 1.53 2
23:00 0 J/kg -0.1 K 0 % 0 % 0 % 0 m²/s² 0 0 2.87 1
 07:18     19:19    Daglengte: 12:01 Donderdag 24 Sep
00:00 0 J/kg 0.5 K 0 % 0 % 0 % 0 m²/s² 0 0 3.47 2
Temp Baro Wind Neerslag
  EWN Forecast EWN WRFDA DWD ICON FMI HIRLAM MET Norway GFS
 07:14     19:25    Daglengte: 12:11 Vandaag
02:00 17.0° 1015.8 hPa 0.7 m/s 0.0 mm 14.0° 1013.5 hPa 2.1 m/s 1.4 mm 15.8° 1015.2 hPa 0.5 m/s 1.2 mm 17.9° 1017.2 hPa 1.4 m/s 0.0 mm 18.3° 1015.9 hPa 0.4 m/s 14.9° 1016.1 hPa 1.2 m/s
05:00 16.3° 1015.7 hPa 0.6 m/s 0.5 mm 13.9° 1013.2 hPa 1.2 m/s 2.2 mm 15.6° 1015.0 hPa 0.7 m/s 1.1 mm 16.3° 1017.3 hPa 0.8 m/s 0.0 mm 17.4° 1015.7 hPa 0.4 m/s 14.3° 1016.0 hPa 1.4 m/s
08:00 16.1° 1016.1 hPa 0.6 m/s 0.0 mm 15.7° 1014.4 hPa 1.9 m/s 2.2 mm 14.6° 1015.4 hPa 0.9 m/s 0.0 mm 16.3° 1017.6 hPa 0.4 m/s 0.0 mm 17.0° 1016.0 hPa 0.5 m/s 14.7° 1016.3 hPa 1.0 m/s
11:00 19.0° 1016.3 hPa 0.7 m/s 0.3 mm 20.1° 1014.1 hPa 1.6 m/s 2.2 mm 18.1° 1015.7 hPa 0.4 m/s 0.0 mm 19.2° 1016.8 hPa 0.6 m/s 0.0 mm 19.4° 1016.4 hPa 0.9 m/s 20.6° 1016.0 hPa 0.6 m/s
14:00 21.2° 1015.3 hPa 1.2 m/s 0.8 mm 22.7° 1013.5 hPa 1.2 m/s 2.2 mm 21.2° 1014.6 hPa 0.9 m/s 0.0 mm 21.2° 1015.6 hPa 1.3 m/s 0.0 mm 21.6° 1015.3 hPa 1.2 m/s 23.7° 1014.9 hPa 1.7 m/s
17:00 21.1° 1014.6 hPa 0.6 m/s 1.3 mm 22.5° 1012.3 hPa 1.9 m/s 2.3 mm 21.3° 1013.6 hPa 0.4 m/s 0.2 mm 21.7° 1014.9 hPa 0.8 m/s 0.0 mm 20.9° 1014.8 hPa 0.5 m/s 22.7° 1014.2 hPa 1.2 m/s
20:00 19.1° 1015.0 hPa 0.8 m/s 0.3 mm 17.5° 1013.2 hPa 2.9 m/s 3.7 mm 19.0° 1014.5 hPa 0.9 m/s 0.0 mm 19.5° 1016.2 hPa 0.1 m/s 0.0 mm 19.9° 1015.0 hPa 0.4 m/s 17.7° 1014.7 hPa 0.5 m/s
23:00 17.5° 1015.0 hPa 1.1 m/s 0.0 mm 15.5° 1013.7 hPa 2.4 m/s 4.2 mm 16.4° 1014.7 hPa 1.1 m/s 0.0 mm 17.7° 1016.8 hPa 0.8 m/s 0.0 mm 18.7° 1014.8 hPa 0.8 m/s 16.0° 1015.8 hPa 1.3 m/s
 07:16     19:23    Daglengte: 12:07 Morgen
02:00 16.5° 1014.7 hPa 1.2 m/s 0.0 mm 14.8° 1012.4 hPa 2.7 m/s 4.2 mm 14.9° 1014.7 hPa 0.7 m/s 0.0 mm 17.0° 1016.1 hPa 1.4 m/s 0.0 mm 17.6° 1014.7 hPa 0.8 m/s 14.4° 1015.6 hPa 1.9 m/s
05:00 14.9° 1014.2 hPa 1.6 m/s 0.4 mm 14.4° 1012.0 hPa 2.9 m/s 4.2 mm 13.9° 1014.2 hPa 0.9 m/s 0.5 mm 16.6° 1015.4 hPa 1.8 m/s 0.0 mm 14.8° 1014.0 hPa 1.6 m/s 13.8° 1014.7 hPa 1.8 m/s
08:00 15.5° 1014.5 hPa 1.3 m/s 0.5 mm 16.8° 1012.7 hPa 2.3 m/s 4.2 mm 13.9° 1014.4 hPa 0.5 m/s 0.3 mm 16.8° 1015.8 hPa 2.0 m/s 0.0 mm 15.1° 1014.4 hPa 1.2 m/s 14.6° 1014.8 hPa 1.5 m/s
11:00 19.1° 1014.1 hPa 0.6 m/s 0.0 mm 19.3° 1012.0 hPa 0.1 m/s 5.8 mm 17.0° 1013.8 hPa 0.6 m/s 0.0 mm 20.1° 1014.3 hPa 0.9 m/s 0.0 mm 19.5° 1014.1 hPa 0.6 m/s 21.6° 1013.7 hPa 0.9 m/s
14:00 20.9° 1012.3 hPa 1.1 m/s 0.0 mm 22.6° 1010.1 hPa 1.0 m/s 6.0 mm 20.6° 1012.2 hPa 1.1 m/s 0.0 mm 21.2° 1012.5 hPa 1.7 m/s 0.0 mm 21.1° 1012.2 hPa 0.9 m/s 22.9° 1012.4 hPa 1.2 m/s
17:00 20.3° 1011.0 hPa 0.7 m/s 1.6 mm 19.0° 1009.4 hPa 3.6 m/s 7.5 mm 20.4° 1010.5 hPa 0.9 m/s 0.0 mm 20.9° 1011.1 hPa 0.1 m/s 0.0 mm 20.5° 1011.0 hPa 0.4 m/s 17.4° 1011.1 hPa 1.8 m/s
20:00 18.4° 1010.9 hPa 1.2 m/s 0.0 mm 15.8° 1009.2 hPa 2.6 m/s 46.2 mm 18.3° 1010.4 hPa 0.9 m/s 0.1 mm 19.3° 1011.3 hPa 1.3 m/s 0.0 mm 18.8° 1010.9 hPa 1.1 m/s 15.5° 1011.2 hPa 1.3 m/s
23:00 16.5° 1011.1 hPa 1.6 m/s 3.8 mm 15.2° 1008.8 hPa 2.9 m/s 53.1 mm 16.6° 1011.1 hPa 0.7 m/s 0.0 mm 16.8° 1011.2 hPa 1.6 m/s 14.5° 1011.6 hPa 2.0 m/s
 07:17     19:21    Daglengte: 12:04 Woensdag 23 Sep
02:00 16.2° 1010.6 hPa 0.9 m/s 0.0 mm 15.1° 1009.3 hPa 2.5 m/s 53.1 mm 15.9° 1010.6 hPa 0.4 m/s 0.0 mm 17.6° 1010.6 hPa 0.7 m/s 14.1° 1011.5 hPa 1.5 m/s
05:00 16.0° 1010.3 hPa 0.8 m/s 9.8 mm 15.5° 1008.0 hPa 3.3 m/s 53.2 mm 15.9° 1010.3 hPa 0.4 m/s 0.3 mm 16.9° 1010.4 hPa 0.5 m/s 15.0° 1011.0 hPa 1.2 m/s
08:00 15.3° 1010.7 hPa 1.0 m/s 11.4 mm 15.2° 1008.7 hPa 3.0 m/s 53.3 mm 15.1° 1010.3 hPa 0.9 m/s 0.2 mm 16.1° 1010.7 hPa 0.7 m/s 15.3° 1011.5 hPa 0.9 m/s
11:00 18.2° 1010.4 hPa 0.6 m/s 7.5 mm 19.5° 1008.5 hPa 1.8 m/s 53.3 mm 16.8° 1010.5 hPa 0.3 m/s 0.4 mm 18.3° 1010.7 hPa 0.5 m/s 17.0° 1011.0 hPa 0.5 m/s
14:00 18.8° 1009.4 hPa 1.4 m/s 22.6 mm 21.8° 1007.8 hPa 2.3 m/s 53.3 mm 18.8° 1008.8 hPa 0.6 m/s 0.3 mm 18.3° 1010.1 hPa 1.4 m/s 20.7° 1010.0 hPa 0.9 m/s
17:00 18.5° 1008.8 hPa 1.3 m/s 18.5 mm 21.7° 1006.9 hPa 4.0 m/s 53.3 mm 18.0° 1008.4 hPa 0.6 m/s 1.1 mm 18.1° 1009.6 hPa 1.1 m/s 20.0° 1009.2 hPa 0.6 m/s
20:00 17.3° 1008.8 hPa 0.7 m/s 0.0 mm 15.8° 1008.4 hPa 0.7 m/s 53.3 mm 16.9° 1008.6 hPa 0.5 m/s 0.0 mm 18.0° 1009.1 hPa 0.8 m/s 15.6° 1009.8 hPa 0.9 m/s
23:00 15.5° 1008.6 hPa 1.4 m/s 0.0 mm 15.0° 1008.5 hPa 2.9 m/s 53.3 mm 15.2° 1008.5 hPa 0.8 m/s 0.0 mm 15.9° 1008.8 hPa 1.3 m/s 14.0° 1011.0 hPa 1.9 m/s
 07:18     19:19    Daglengte: 12:01 Donderdag 24 Sep
02:00 13.9° 1008.4 hPa 1.8 m/s 0.0 mm 15.1° 1008.3 hPa 3.3 m/s 53.3 mm 13.6° 1008.4 hPa 0.6 m/s 0.0 mm 13.8° 1008.4 hPa 1.8 m/s 13.4° 1010.8 hPa 2.1 m/s
05:00 15.1° 1009.5 hPa 1.0 m/s 22.9 mm 15.3° 1009.4 hPa 0.9 m/s 13.2° 1010.7 hPa 1.9 m/s 22.9 mm
08:00 15.8° 1010.0 hPa 0.6 m/s 22.9 mm 16.0° 1009.9 hPa 0.5 m/s 14.2° 1011.6 hPa 1.6 m/s 22.9 mm
11:00 18.7° 1009.9 hPa 0.7 m/s 22.9 mm 18.6° 1009.8 hPa 0.7 m/s 19.3° 1011.2 hPa 1.3 m/s 22.9 mm
14:00 21.1° 1009.7 hPa 1.0 m/s 23.1 mm 21.2° 1009.6 hPa 0.9 m/s 20.4° 1010.6 hPa 1.8 m/s 23.1 mm
17:00 19.0° 1009.6 hPa 0.8 m/s 25.1 mm 19.1° 1009.7 hPa 0.8 m/s 17.4° 1009.6 hPa 1.3 m/s 25.1 mm
20:00 16.8° 1009.6 hPa 0.7 m/s 25.9 mm 17.0° 1009.7 hPa 0.6 m/s 14.8° 1009.0 hPa 1.5 m/s 25.9 mm
23:00 15.9° 1008.6 hPa 0.6 m/s 30.8 mm 16.1° 1008.6 hPa 0.6 m/s 13.5° 1009.0 hPa 0.7 m/s 30.8 mm
 07:20     19:17    Daglengte: 11:57 Vrijdag 25 Sep
02:00 15.1° 1007.6 hPa 0.6 m/s 39.1 mm 15.3° 1007.5 hPa 0.5 m/s 13.2° 1008.2 hPa 1.4 m/s 39.1 mm
05:00 14.5° 1006.4 hPa 1.1 m/s 44.4 mm 14.7° 1006.2 hPa 1.0 m/s 11.9° 1007.5 hPa 1.7 m/s 44.4 mm
08:00 13.8° 1005.3 hPa 1.4 m/s 49.4 mm 14.1° 1005.0 hPa 1.5 m/s 10.4° 1008.6 hPa 0.7 m/s 49.4 mm
11:00 12.7° 1006.4 hPa 2.1 m/s 55.1 mm 13.1° 1006.1 hPa 2.0 m/s 8.5° 1009.1 hPa 2.1 m/s 55.1 mm
14:00 11.7° 1007.3 hPa 2.5 m/s 60.8 mm 12.1° 1007.3 hPa 2.6 m/s 7.5° 1007.9 hPa 1.5 m/s 60.8 mm
17:00 10.9° 1007.9 hPa 1.6 m/s 69.9 mm 11.3° 1008.0 hPa 1.6 m/s 6.2° 1006.9 hPa 1.7 m/s 69.9 mm
20:00 10.3° 1008.6 hPa 0.6 m/s 76.7 mm 10.6° 1008.6 hPa 0.5 m/s 6.4° 1008.7 hPa 1.8 m/s 76.7 mm
23:00 9.3° 1009.2 hPa 1.1 m/s 80.2 mm 9.6° 1009.1 hPa 1.1 m/s 6.2° 1010.8 hPa 1.1 m/s 80.2 mm
 07:21     19:15    Daglengte: 11:54 Zaterdag 26 Sep
02:00 8.2° 1009.7 hPa 1.7 m/s 82.4 mm 8.5° 1009.6 hPa 1.6 m/s 5.4° 1011.1 hPa 2.9 m/s 82.4 mm
05:00 7.5° 1010.6 hPa 1.9 m/s 83.4 mm 7.8° 1010.6 hPa 1.9 m/s 5.0° 1011.1 hPa 1.9 m/s 83.4 mm
08:00 6.8° 1011.7 hPa 2.1 m/s 87.5 mm 7.0° 1011.6 hPa 2.1 m/s 4.9° 1012.7 hPa 2.2 m/s 87.5 mm
11:00 7.7° 1012.5 hPa 2.0 m/s 88.7 mm 7.9° 1012.5 hPa 1.9 m/s 6.0° 1013.0 hPa 3.3 m/s 88.7 mm
14:00 8.8° 1013.3 hPa 1.9 m/s 90.7 mm 8.8° 1013.4 hPa 1.7 m/s 8.7° 1012.8 hPa 4.5 m/s 90.7 mm
17:00 8.2° 1013.8 hPa 2.3 m/s 92.3 mm 8.2° 1013.9 hPa 2.2 m/s 7.6° 1013.1 hPa 3.4 m/s 92.3 mm
20:00 7.4° 1014.5 hPa 2.8 m/s 92.7 mm 7.6° 1014.4 hPa 2.8 m/s 5.3° 1015.4 hPa 3.3 m/s 92.7 mm
23:00 7.3° 1013.9 hPa 2.4 m/s 92.8 mm 7.6° 1013.6 hPa 2.3 m/s 4.6° 1016.6 hPa 3.0 m/s 92.8 mm
 07:22     19:13    Daglengte: 11:51 Zondag 27 Sep
02:00 7.2° 1013.1 hPa 1.9 m/s 92.8 mm 7.6° 1012.9 hPa 1.8 m/s 3.0° 1015.6 hPa 2.5 m/s 92.8 mm
05:00 7.0° 1013.9 hPa 1.9 m/s 92.8 mm 7.4° 1013.9 hPa 1.9 m/s 1.8° 1014.1 hPa 2.2 m/s 92.8 mm
08:00 6.9° 1014.8 hPa 2.0 m/s 92.8 mm 7.3° 1014.9 hPa 2.0 m/s 2.1° 1013.5 hPa 2.2 m/s 92.8 mm
11:00 8.9° 1015.6 hPa 1.6 m/s 92.8 mm 8.8° 1016.0 hPa 1.7 m/s 10.9° 1011.5 hPa 0.5 m/s 92.8 mm
14:00 10.4° 1016.5 hPa 1.4 m/s 92.8 mm 10.2° 1017.1 hPa 1.4 m/s 12.7° 1010.1 hPa 1.0 m/s 92.8 mm
17:00 10.1° 1017.6 hPa 1.2 m/s 93.0 mm 10.0° 1018.4 hPa 1.1 m/s 10.7° 1009.8 hPa 1.8 m/s 93.0 mm
20:00 9.5° 1019.0 hPa 1.0 m/s 93.0 mm 9.8° 1019.6 hPa 0.9 m/s 5.7° 1012.2 hPa 2.0 m/s 93.0 mm
23:00 9.6° 1019.9 hPa 0.8 m/s 93.0 mm 10.0° 1020.5 hPa 0.7 m/s 5.0° 1013.6 hPa 1.9 m/s 93.0 mm
 07:24     19:11    Daglengte: 11:47 Maandag 28 Sep
02:00 9.8° 1020.7 hPa 0.6 m/s 93.0 mm 10.2° 1021.4 hPa 0.5 m/s 5.3° 1013.1 hPa 2.1 m/s 93.0 mm
08:00 9.8° 1022.4 hPa 0.6 m/s 93.0 mm 10.0° 1023.3 hPa 0.4 m/s 7.0° 1012.7 hPa 2.8 m/s 93.0 mm
14:00 15.0° 1022.5 hPa 0.7 m/s 94.9 mm 15.2° 1023.6 hPa 0.6 m/s 12.5° 1010.8 hPa 1.8 m/s 94.9 mm
20:00 13.4° 1022.8 hPa 0.9 m/s 95.0 mm 13.6° 1023.9 hPa 0.8 m/s 11.0° 1010.4 hPa 2.6 m/s 95.0 mm
 07:25     19:09    Daglengte: 11:44 Dinsdag 29 Sep
02:00 9.5° 1022.6 hPa 1.0 m/s 111.8 mm 9.4° 1023.5 hPa 0.9 m/s 10.7° 1013.1 hPa 1.5 m/s 111.8 mm
08:00 9.9° 1021.1 hPa 0.9 m/s 113.5 mm 10.0° 1021.6 hPa 0.8 m/s 9.0° 1015.7 hPa 1.7 m/s 113.5 mm
14:00 18.1° 1018.8 hPa 1.4 m/s 113.6 mm 18.3° 1019.4 hPa 1.4 m/s 16.4° 1012.3 hPa 1.2 m/s 113.6 mm
20:00 15.9° 1017.5 hPa 1.1 m/s 113.7 mm 16.3° 1018.0 hPa 1.0 m/s 11.1° 1012.5 hPa 2.3 m/s 113.7 mm
 07:26     19:07    Daglengte: 11:41 Woensdag 30 Sep
02:00 10.1° 1016.9 hPa 2.3 m/s 113.7 mm 10.0° 1017.2 hPa 2.3 m/s 10.8° 1013.1 hPa 2.7 m/s 113.7 mm
08:00 11.0° 1015.3 hPa 1.9 m/s 113.7 mm 11.0° 1015.4 hPa 1.9 m/s 11.0° 1014.5 hPa 2.0 m/s 113.7 mm
14:00 21.4° 1013.8 hPa 1.4 m/s 113.7 mm 21.4° 1013.8 hPa 1.4 m/s 113.7 mm
20:00 9.6° 1018.2 hPa 0.8 m/s 0.9 mm
 07:28     19:05    Daglengte: 11:37 Donderdag 01 Okt
02:00 9.1° 1019.2 hPa 1.8 m/s 1.3 mm
08:00 8.3° 1019.1 hPa 1.5 m/s 2.1 mm
14:00 17.3° 1017.0 hPa 0.8 m/s 2.1 mm
20:00 8.9° 1017.3 hPa 0.4 m/s 1.1 mm
 07:29     19:03    Daglengte: 11:34 Vrijdag 02 Okt
02:00 8.9° 1017.9 hPa 1.8 m/s 0.8 mm
08:00 8.5° 1017.5 hPa 2.0 m/s 0.9 mm
14:00 18.1° 1015.6 hPa 0.4 m/s 1.8 mm
20:00 10.2° 1016.6 hPa 0.7 m/s 1.9 mm
 07:30     19:01    Daglengte: 11:31 Zaterdag 03 Okt
02:00 9.6° 1017.3 hPa 1.9 m/s 1.1 mm
08:00 9.1° 1017.2 hPa 1.9 m/s 1.5 mm
14:00 19.3° 1015.7 hPa 0.3 m/s 1.3 mm
20:00 11.4° 1016.9 hPa 0.9 m/s 1.2 mm
 07:32     18:59    Daglengte: 11:27 Zondag 04 Okt
02:00 10.6° 1018.2 hPa 1.8 m/s 1.0 mm
08:00 10.2° 1018.5 hPa 1.9 m/s 0.9 mm
14:00 19.5° 1017.3 hPa 0.2 m/s 0.3 mm
20:00 12.1° 1018.4 hPa 1.1 m/s 0.3 mm
 07:33     18:57    Daglengte: 11:24 Maandag 05 Okt
02:00 11.3° 1019.4 hPa 2.3 m/s 0.1 mm
08:00 10.7° 1019.4 hPa 2.3 m/s 0.2 mm
14:00 20.1° 1018.0 hPa 0.2 m/s 0.5 mm
20:00 12.5° 1018.7 hPa 1.1 m/s 0.7 mm
FMI Hirlam - 7.5 km EWN WRFDA - 12 km DWD ICON - 7 km GFS - 25 km Basiskaart






























































Updatetijd (Europe/Amsterdam) Resolutie Lengte Stap
FMI Hirlam 19:00, 01:00, 07:00, 13:00 7.5 km 49h 1h
EWN WRFDA 22:00, 04:00, 10:00, 16:00 12 km 73h 1h
DWD ICON 23:45, 05:45, 11:45, 17:45 7 km 75h 1h
GFS 19:45, 01:45, 07:45, 13:45 25 km 237h 3h
30+ mm
25-30 mm
20-25 mm
15-20 mm
10-15 mm
6-10 mm
4-6 mm
2-4 mm
1-2 mm
0.5-1 mm
0.2-0.5 mm
0.1-0.2 mm
30+ mm
25-30 mm
20-25 mm
15-20 mm
10-15 mm
6-10 mm
4-6 mm
2-4 mm
1-2 mm
0.5-1 mm
0.2-0.5 mm
0.1-0.2 mm
Sneeuwval
Natte sneeuw
Hagel
Vorst
30+ mm
25-30 mm
20-25 mm
15-20 mm
10-15 mm
6-10 mm
4-6 mm
2-4 mm
1-2 mm
0.5-1 mm
0.2-0.5 mm
0.1-0.2 mm
Sneeuwval
Natte sneeuw
Hagel
Vorst
Onweer
50 mm
40 mm
30 mm
26 mm
22 mm
18 mm
14 mm
10 mm
9 mm
8 mm
7 mm
6 mm
5 mm
4.5 mm
4 mm
3.5 mm
3 mm
2.5 mm
2 mm
1.5 mm
1 mm
0.8 mm
0.6 mm
0.4 mm
0.2 mm
0.05 mm
35°
30°
25°
20°
15°
10°
-5°
-10°
-15°
-20°
-25°
-30°
-35°
33> m/s
29 m/s
25 m/s
21 m/s
17 m/s
14 m/s
11 m/s
8 m/s
5 m/s
3 m/s
0 m/s
2600 J/kg
2400 J/kg
2200 J/kg
2000 J/kg
1800 J/kg
1600 J/kg
1400 J/kg
1200 J/kg
1000 J/kg
800 J/kg
600 J/kg
400 J/kg
200 J/kg
70 dBZ
65 dBZ
60 dBZ
55 dBZ
50 dBZ
45 dBZ
40 dBZ
35 dBZ
30 dBZ
25 dBZ
20 dBZ
15 dBZ
10 dBZ
5 dBZ
-1 K
-2 K
-3 K
-4 K
-5 K
-6 K
-7 K
-8 K
-9 K
950 m²/s²
900 m²/s²
850 m²/s²
800 m²/s²
750 m²/s²
700 m²/s²
650 m²/s²
600 m²/s²
550 m²/s²
500 m²/s²
450 m²/s²
400 m²/s²
350 m²/s²
300 m²/s²
250 m²/s²
200 m²/s²
150 m²/s²
100 m²/s²
46 m/s
44 m/s
42 m/s
40 m/s
38 m/s
36 m/s
34 m/s
32 m/s
30 m/s
28 m/s
26 m/s
24 m/s
22 m/s
20 m/s
16 m/s
12 m/s
8 m/s
4 m/s
30 m/s
28 m/s
26 m/s
24 m/s
22 m/s
20 m/s
18 m/s
16 m/s
14 m/s
12 m/s
10 m/s
8 m/s
6 m/s
4 m/s
2 m/s
3.0
2.8
2.6
2.4
2.2
2.0
1.8
1.6
1.4
1.2
1.0
0.8
0.6
0.4
0.2
15
14
13
12
11
10
9
8
7
6
5
4
3
2
1
90%
80%
70%
60%
50%
40%
30%
20%
10%
42
40
38
36
34
32
30
28
26
24
22
20
18
16
14
12
90+ cm
80-90 cm
70-80 cm
60-70 cm
50-60 cm
40-50 cm
30-40 cm
20-30 cm
10-20 cm
1-10 cm
Sneeuwval
Natte sneeuw
Regen
>120 mm
115 mm
110 mm
105 mm
100 mm
95 mm
90 mm
85 mm
80 mm
75 mm
70 mm
65 mm
60 mm
55 mm
50 mm
45 mm
45 mm
40 mm
35 mm
30 mm
25 mm
20 mm
15 mm
10 mm
5 mm
0.1 mm
960 hPa
880 hPa
800 hPa
720 hPa
640 hPa
560 hPa
584 gpdm
568 gpdm
552 gpdm
536 gpdm
520 gpdm
504 gpdm
488 gpdm
Extreem zwaar Noodweer Kans op onweer
15% 15% 5% 50% 15%

Dag




Kaart






35°
30°
25°
20°
15°
10°
-5°
-10°
-15°
-20°
-25°
-30°
-35°
<
33> m/s
29 m/s
25 m/s
21 m/s
17 m/s
14 m/s
11 m/s
8 m/s